Simultaneous Nadir Overpasses (SNOs) Predictions

Prediction of SNOs between LANDSAT-8 and NPP Satellite Orbit:

Table of predicted SNOs for the next 14.0 days since TLE Epoch: 10/26/2024
Index Date (LANDSAT-8) Time (LANDSAT-8) Lat,Lon (LANDSAT-8) SZA (LANDSAT-8 ) Date (NPP) Time (NPP) Lat,Lon (NPP) SZA (NPP ) Distance(km) Time Diff (sec)
1 10/26/2024 23:14:56 -70.06, 7.67 97.19 10/26/2024 23:14:08 -70.07, 7.73 97.17 3.01 48
2 10/27/2024 00:04:23 69.95, 175.16 82.72 10/27/2024 00:04:52 69.94, 175.24 82.71 3.15 29
3 10/29/2024 14:41:43 70.66, -43.19 84.31 10/29/2024 14:40:34 70.76, -44.90 84.40 63.89 69
4 10/29/2024 15:31:22 -70.06, 123.56 96.30 10/29/2024 15:31:04 -70.05, 123.54 96.31 1.65 18
5 10/29/2024 16:20:49 69.95, -68.95 83.61 10/29/2024 16:21:48 69.92, -68.96 83.58 3.22 59
6 11/01/2024 06:58:18 70.11, 71.90 84.61 11/01/2024 06:57:18 70.12, 71.88 84.62 1.66 60
7 11/01/2024 07:47:48 -70.00,-120.62 95.49 11/01/2024 07:47:59 -69.99,-120.60 95.50 1.66 11
8 11/01/2024 08:37:25 69.33, 46.11 83.85 11/01/2024 08:38:33 69.33, 47.67 83.86 61.21 68
9 11/03/2024 23:14:42 70.04,-172.29 85.38 11/03/2024 23:14:11 70.03,-172.21 85.37 3.37 31
10 11/04/2024 00:04:12 -69.94, -4.81 94.72 11/04/2024 00:04:53 -69.95, -4.77 94.71 1.70 41
11 11/06/2024 14:41:37 -70.21, 136.20 93.66 11/06/2024 14:40:24 -70.24, 135.93 93.63 10.78 73
12 11/06/2024 15:31:05 70.03, -56.41 86.17 11/06/2024 15:31:06 70.01, -56.41 86.16 2.20 1
13 11/06/2024 16:20:35 -69.93, 111.08 93.92 11/06/2024 16:21:48 -69.93, 111.03 93.92 1.98 73



Historial Predications of SNOs between LANDSAT-8 and NPP
